map of CSV home
CSV - Airport
Location
City:  Crossville, Tennessee, United States
Name:Crossville Memorial-Whitson Field
ICAO:KCSV
IATA:CSV
FAA LID:CSV

Details
Type:Airport (Airfield)
Use:Public/Civil
Latitude:3557'05"N (35.951292)
Longitude:8505'06"W (-85.084977)
Datum:WGS 1984
Elevation:1881 ft (573 m)
Variation:5.03W (WMM2015 magnetic declination)
-0.08 annual change
Runways:1
Longest:5418 × 100 ft (1651 × 30.5 m), paved

Time
Time Zone:UTC-6 (DST-5)
Local Time:

Weather
METAR:KCSV 210653Z AUTO 00000KT 10SM FEW015 M01/M03 A3025 RMK AO2 SLP254 T10061033
TAF:KCSV 210657Z 2107/2206 00000KT P6SM SCT015
FM211400 33002KT P6SM BKN030
FM220000 32002KT P6SM SCT060

Related Locations
Nearby:
Farthest:YAUG: 11294 mi / 18176 km
Augusta [Augusta Airport], WA, AU

Find:

   beyond  
but within

Other Information
Maps:
NOTAMs:
Links:
Sources:

  
  • flag of United States
  • flag of Tennessee
  

Sectional Chart

Flight Planning
at skyvector.com

Satellite Image

Google Maps Satellite view

 

Copyright © 2004-2018 Karl L. Swartz. All rights reserved.
The Great Circle Mapper name and logo are trademarks of the Great Circle Mapper.
All other trademarks mentioned herein belong to their respective owners.
Please see credits for attibutions and further copyright information.

  Follow gcmap on Facebook Follow gcmap on Twitter Follow gcmap on Google+ GCmap on LinkedIn

hCard Microformat

Geo Microformat